EW5297 Weather Reports


Display with metric or nautical units.
time (UTC)temp
F
wind
direction
speed
MPH
gust
MPH
rain 1hr
in
rain 24hr
in
rain mn
in
humidity
%
barometer
mb
20260503031816 67 156 1.0 2.0 0.28 1.18 0.21 91
20260503030338 67 44 0.0 2.0 0.28 1.18 0.21 91
20260503024835 66 330 1.0 2.0 0.24 1.14 0.20 91
20260503023314 67 327 1.0 2.0 0.04 0.94 0.17 91
20260503021812 67 144 0.0 0.0 0.00 0.91 0.16 91
20260503020329 67 144 0.0 2.0 0.00 0.91 0.16 91
20260503014811 67 102 0.0 2.0 0.00 0.94 0.16 92
20260503013328 67 295 0.0 0.0 0.04 0.94 0.16 93
20260503011824 66 295 0.0 2.0 0.04 0.94 0.16 93
20260503010325 66 295 0.0 0.0 0.04 0.94 0.16 93
20260503004821 66 228 0.0 0.0 0.04 0.94 0.16 94
20260503003343 65 228 0.0 0.0 0.00 0.91 0.15 94 520.7
20260503001840 65 159 0.0 0.0 0.00 0.91 0.15 94
20260503000315 65 159 0.0 1.0 0.00 0.91 0.15 94
20260502234838 65 165 0.0 0.0 0.00 0.91 0.15 94
20260502233313 65 241 0.0 0.0 0.00 0.91 0.15 94
20260502231834 65 221 0.0 0.0 0.00 0.91 0.15 94
20260502230330 64 202 0.0 0.0 0.00 0.91 0.15 94
20260502224828 64 202 0.0 1.0 0.16 0.91 0.15 94
20260502223330 64 316 0.0 2.0 0.20 0.91 0.15 94
20260502221829 64 229 0.0 0.0 0.35 0.91 0.15 94
20260502220330 63 229 0.0 0.0 0.43 0.91 0.15 94 688.8
20260502214813 62 186 2.0 4.0 0.35 0.75 0.12 94 904.8
20260502213334 62 340 0.0 2.0 0.31 0.71 0.11 94 904.8
20260502211818 62 340 0.0 0.0 0.16 0.55 0.08 94
20260502210318 62 340 0.0 1.0 0.08 0.47 0.06 94 111.8
20260502204819 62 340 0.0 2.0 0.00 0.43 0.05 94 1021.3
20260502203324 61 267 0.0 0.0 0.00 0.43 0.05 94 857.4
20260502200327 61 267 0.0 0.0 0.00 0.43 0.05 94 967.9
20260502194827 61 267 0.0 0.0 0.00 0.47 0.05 94 979.6
20260502193324 61 267 0.0 0.0 0.04 0.47 0.05 94 425.9
20260502191826 61 267 0.0 0.0 0.04 0.47 0.05 94 229.5
20260502190323 61 267 0.0 0.0 0.16 0.47 0.05 94 104.1
20260502184820 61 267 0.0 0.0 0.20 0.47 0.05 94
20260502183320 61 267 0.0 0.0 0.16 0.43 0.04 94 838.3
20260502181838 61 267 0.0 0.0 0.16 0.43 0.04 93 827.2
20260502180312 61 262 0.0 0.0 0.08 0.31 0.02 94 1020.4
20260502170331 61 336 0.0 0.0 0.00 0.24 0.00 93 753.4
20260502163348 61 336 0.0 0.0 0.00 0.24 0.00 93 1021.1
20260502161846 61 336 0.0 0.0 0.00 0.24 0.00 93
20260502160343 61 336 0.0 0.0 0.00 0.24 0.00 93 1080.3
20260502151820 61 336 0.0 2.0 0.00 0.24 0.00 93 1092.6
20260502150316 61 336 0.0 0.0 0.00 0.24 0.00 93 1021.7
20260502130323 62 336 0.0 2.0 0.00 0.24 0.00 93 1022.3
20260502123344 62 336 0.0 1.0 0.00 0.24 0.05 93 1022.5
20260502121845 62 336 0.0 0.0 0.00 0.24 0.05 92 1023.1
20260502120310 62 336 0.0 0.0 0.00 0.24 0.05 92 523.4
20260502114810 62 336 0.0 0.0 0.00 0.28 0.05 92 1023.4
20260502113332 62 336 0.0 2.0 0.00 0.28 0.05 92 1023.2
20260502111816 62 336 0.0 0.0 0.08 0.28 0.05 92 1023.0
20260502110316 63 336 0.0 0.0 0.08 0.28 0.05 92 1022.6
20260502104821 63 348 0.0 0.0 0.08 0.28 0.05 92 1023.0
20260502103341 63 348 0.0 0.0 0.08 0.28 0.05 92 1022.5
20260502101822 63 348 0.0 0.0 0.04 0.20 0.03 92 1022.7
20260502100325 63 348 1.0 2.0 0.04 0.20 0.03 92 1022.8
20260502090321 63 298 0.0 0.0 0.00 0.24 0.02 91 954.5
20260502070317 65 298 0.0 0.0 0.00 0.24 0.02 88 1021.5
20260502064817 66 298 0.0 0.0 0.00 0.24 0.02 87 518.7
20260502063314 67 298 0.0 0.0 0.00 0.24 0.02 86 520.0
20260502061831 67 298 0.0 0.0 0.00 0.24 0.02 86 1021.5
20260502060330 68 171 0.0 0.0 0.00 0.24 0.02 84 519.8
20260502054849 68 171 0.0 0.0 0.00 0.28 0.02 80 519.8
20260502053309 69 160 0.0 3.0 0.00 0.28 0.02 79 1021.2
20260502051827 69 136 3.0 7.0 0.00 0.28 0.02 77 1021.2
20260502050324 69 188 3.0 5.0 0.00 0.28 0.02 80 1021.2
20260502044825 70 156 1.0 3.0 0.00 0.43 0.02 77 1021.2
20260502043322 71 161 5.0 11.0 0.00 0.43 0.02 74 1021.1
20260502041819 69 171 2.0 3.0 0.00 0.43 0.02 77 1021.5
20260502040342 70 137 1.0 8.0 0.00 0.43 0.02 75 550.3
20260502034819 70 184 4.0 9.0 0.00 0.43 0.02 75 1051.9
20260502033322 71 173 3.0 7.0 0.00 0.43 0.02 77 1021.5